Simultaneous Nadir Overpasses (SNOs) Predictions

Prediction of SNOs between LANDSAT-8 and METOP-B Satellite Orbit:

Table of predicted SNOs for the next 14.0 days since TLE Epoch: 5/23/2015
Index Date (LANDSAT-8) Time (LANDSAT-8) Lat,Lon (LANDSAT-8) SZA (LANDSAT-8 ) Date (METOP-B) Time (METOP-B) Lat,Lon (METOP-B) SZA (METOP-B ) Distance(km) Time Diff (sec)
1 05/24/2015 15:14:01 81.08, -9.23 62.49 05/24/2015 15:12:53 81.08, -9.33 62.44 1.74 68
2 05/24/2015 16:03:27 -81.11, 158.74 117.48 05/24/2015 16:03:32 -81.11, 158.69 117.48 0.87 5
3 05/27/2015 10:48:15 81.09, 57.37 62.01 05/27/2015 10:47:11 81.10, 57.48 61.99 1.93 64
4 05/27/2015 11:37:41 -81.12,-134.64 117.95 05/27/2015 11:37:50 -81.12,-134.49 117.93 2.49 9
5 05/30/2015 06:22:30 81.10, 123.82 61.56 05/30/2015 06:21:31 81.09, 123.88 61.54 0.86 59
6 05/30/2015 07:11:56 -81.12, -68.16 118.40 05/30/2015 07:12:10 -81.12, -68.10 118.38 1.13 14
7 06/02/2015 01:56:45 81.09,-169.86 61.13 06/02/2015 01:55:51 81.09,-169.77 61.12 1.71 54
8 06/02/2015 02:46:11 -81.11, -1.83 118.82 06/02/2015 02:46:30 -81.12, -1.74 118.79 1.73 19
9 06/04/2015 21:30:58 81.09,-103.33 60.79 06/04/2015 21:30:10 81.09,-103.46 60.75 2.27 48




NCC Satellite Simultaneous Nadir Overpasses (SNOs) Prediction Service
